SVR2969 UUDD-UTDK

Flight info

Callsign SVR2969
Flight time N/A
Altitude 31000
Route K0826F310 TOGMO4S TOGMO M56 DENUD M161 ODIVA Z407 JD VOBIZ1N
Aircraft A321/M-SDE3FGHIRWY/LB1

Departure

Time N/A
Airport Domodedovo International Airport (UUDD)

Arrival

Time 2026-04-18 07:26
Airport Kulob International Airport (UTDK)
Time Latitude Longitude Altitude Speed Heading
2026-04-18 06:55 38.54899 69.29981 21120 ft 358 kts 137°
2026-04-18 06:55 38.53266 69.32050 20748 ft 350 kts 147°
2026-04-18 06:55 38.51309 69.33846 20335 ft 346 kts 151°
2026-04-18 06:56 38.49266 69.35478 19937 ft 343 kts 155°
2026-04-18 06:56 38.47239 69.37091 19559 ft 342 kts 155°
2026-04-18 06:56 38.45228 69.38688 19160 ft 340 kts 155°
2026-04-18 06:56 38.43228 69.40279 18760 ft 338 kts 155°
2026-04-18 06:57 38.41241 69.41855 18360 ft 335 kts 155°
2026-04-18 06:57 38.37307 69.44975 17562 ft 330 kts 153°
2026-04-18 06:57 38.35369 69.46516 17188 ft 329 kts 151°
2026-04-18 06:58 38.33441 69.48056 16804 ft 326 kts 152°
2026-04-18 06:58 38.31522 69.49575 16415 ft 324 kts 153°
2026-04-18 06:58 38.29590 69.51035 16014 ft 320 kts 158°
2026-04-18 06:58 38.27533 69.52050 15634 ft 315 kts 168°
2026-04-18 06:59 38.25395 69.52534 15249 ft 310 kts 179°
2026-04-18 06:59 38.23250 69.52755 14858 ft 309 kts 178°
2026-04-18 06:59 38.21106 69.52990 14479 ft 310 kts 177°
2026-04-18 06:59 38.18965 69.53236 14096 ft 308 kts 176°
2026-04-18 07:00 38.16839 69.53488 13713 ft 305 kts 176°
2026-04-18 07:00 38.14719 69.53752 13342 ft 308 kts 176°
2026-04-18 07:00 38.12589 69.54000 12945 ft 306 kts 176°
2026-04-18 07:00 38.10474 69.54220 12556 ft 304 kts 176°
2026-04-18 07:01 38.08371 69.54441 12173 ft 303 kts 176°
2026-04-18 07:01 38.06278 69.54665 11774 ft 301 kts 175°
2026-04-18 07:01 38.04189 69.54899 11382 ft 301 kts 175°
2026-04-18 07:01 38.02103 69.55127 10983 ft 299 kts 175°
2026-04-18 07:02 38.00027 69.55361 10603 ft 300 kts 176°
2026-04-18 07:02 37.97977 69.55599 10328 ft 292 kts 175°
2026-04-18 07:02 37.95985 69.55810 10183 ft 282 kts 176°
2026-04-18 07:02 37.94078 69.55993 10074 ft 270 kts 177°
2026-04-18 07:03 37.92261 69.56173 9933 ft 253 kts 176°
2026-04-18 07:03 37.90503 69.56364 9533 ft 251 kts 176°
2026-04-18 07:03 37.88773 69.56549 9183 ft 248 kts 175°
2026-04-18 07:03 37.87061 69.56748 8860 ft 246 kts 175°
2026-04-18 07:04 37.85363 69.56993 8541 ft 245 kts 167°
2026-04-18 07:04 37.83847 69.57916 8230 ft 243 kts 141°
2026-04-18 07:04 37.82799 69.59566 7907 ft 243 kts 116°
2026-04-18 07:04 37.82312 69.61573 7592 ft 234 kts 105°
2026-04-18 07:05 37.81909 69.63529 7258 ft 226 kts 105°
2026-04-18 07:05 37.81511 69.65413 6954 ft 218 kts 106°
2026-04-18 07:05 37.81124 69.67233 6664 ft 210 kts 106°
2026-04-18 07:05 37.80754 69.68996 6370 ft 205 kts 104°
2026-04-18 07:06 37.80681 69.70770 6095 ft 202 kts 84°
2026-04-18 07:06 37.81081 69.72469 5616 ft 209 kts 63°
2026-04-18 07:06 37.81952 69.73910 5300 ft 205 kts 41°
2026-04-18 07:06 37.83147 69.74860 5044 ft 197 kts 21°
2026-04-18 07:07 37.84429 69.75347 4820 ft 193 kts 15°
2026-04-18 07:07 37.85710 69.75812 4561 ft 190 kts 15°
2026-04-18 07:07 37.86966 69.76267 4333 ft 184 kts 15°
2026-04-18 07:07 37.88177 69.76705 4062 ft 178 kts 14°
2026-04-18 07:08 37.89351 69.77129 3816 ft 174 kts 15°
2026-04-18 07:08 37.90509 69.77551 3514 ft 172 kts 15°
2026-04-18 07:08 37.91642 69.77968 3167 ft 167 kts 16°
2026-04-18 07:08 37.91867 69.78051 3102 ft 166 kts 16°
2026-04-18 07:09 37.92444 69.78265 2921 ft 164 kts 15°
2026-04-18 07:09 37.92779 69.78378 2800 ft 163 kts 13°
2026-04-18 07:09 37.93881 69.78611 2509 ft 157 kts
2026-04-18 07:10 37.94898 69.79011 2493 ft 155 kts 24°
2026-04-18 07:10 37.95928 69.79460 2908 ft 155 kts 17°
2026-04-18 07:10 37.96993 69.79873 3248 ft 164 kts 16°
2026-04-18 07:10 37.98103 69.80287 3650 ft 167 kts 16°
2026-04-18 07:11 37.99233 69.80678 4079 ft 170 kts 13°
2026-04-18 07:11 38.00402 69.81033 4460 ft 175 kts 11°
2026-04-18 07:11 38.01613 69.81340 4830 ft 179 kts
2026-04-18 07:11 38.02836 69.81589 5293 ft 175 kts
2026-04-18 07:12 38.04018 69.81761 5841 ft 166 kts
2026-04-18 07:12 38.05056 69.81863 6316 ft 159 kts
2026-04-18 07:12 38.06052 69.82584 6475 ft 175 kts 49°
2026-04-18 07:12 38.06888 69.83749 6788 ft 181 kts 47°
2026-04-18 07:13 38.07757 69.84912 7156 ft 182 kts 46°
2026-04-18 07:13 38.08634 69.86078 7502 ft 184 kts 47°
2026-04-18 07:13 38.09521 69.87257 7839 ft 185 kts 46°
2026-04-18 07:13 38.10261 69.88588 8181 ft 187 kts 71°
2026-04-18 07:14 38.10351 69.90242 8356 ft 196 kts 106°
2026-04-18 07:14 38.09621 69.91711 8494 ft 204 kts 142°
2026-04-18 07:14 38.08284 69.92355 8603 ft 216 kts 180°
2026-04-18 07:14 38.06856 69.91749 8758 ft 226 kts 219°
2026-04-18 07:15 38.05786 69.90236 8923 ft 236 kts 230°
2026-04-18 07:15 38.04700 69.88603 9050 ft 249 kts 229°
2026-04-18 07:15 38.03558 69.86915 9433 ft 254 kts 229°
2026-04-18 07:15 38.02405 69.85223 9833 ft 251 kts 229°
2026-04-18 07:16 38.01268 69.83556 9493 ft 250 kts 229°
2026-04-18 07:16 38.00130 69.81894 9007 ft 251 kts 229°
2026-04-18 07:16 37.98985 69.80226 8567 ft 250 kts 229°
2026-04-18 07:16 37.97853 69.78574 8147 ft 247 kts 229°
2026-04-18 07:17 37.96733 69.76930 7723 ft 246 kts 229°
2026-04-18 07:17 37.95621 69.75297 7295 ft 244 kts 229°
2026-04-18 07:17 37.94516 69.73669 6885 ft 242 kts 229°
2026-04-18 07:17 37.93420 69.72058 6485 ft 240 kts 229°
2026-04-18 07:18 37.92332 69.70462 6067 ft 239 kts 229°
2026-04-18 07:18 37.91247 69.68875 5643 ft 238 kts 229°
2026-04-18 07:18 37.90524 69.67818 5551 ft 242 kts 229°
2026-04-18 07:18 37.89423 69.66215 6100 ft 241 kts 229°
2026-04-18 07:19 37.88326 69.64613 6721 ft 241 kts 229°
2026-04-18 07:19 37.87223 69.63000 7252 ft 244 kts 229°
2026-04-18 07:19 37.86103 69.61362 7388 ft 246 kts 228°
2026-04-18 07:19 37.84740 69.60101 7410 ft 245 kts 197°
2026-04-18 07:20 37.83065 69.60122 7406 ft 242 kts 159°
2026-04-18 07:20 37.81801 69.61431 7398 ft 238 kts 121°
2026-04-18 07:20 37.81217 69.63392 7301 ft 241 kts 104°
2026-04-18 07:20 37.80912 69.65432 6962 ft 228 kts 99°
2026-04-18 07:21 37.80677 69.67345 6634 ft 213 kts 100°
2026-04-18 07:21 37.80430 69.69136 6324 ft 201 kts 102°
2026-04-18 07:21 37.80176 69.70833 6039 ft 192 kts 97°
2026-04-18 07:21 37.80341 69.72501 5683 ft 195 kts 68°
2026-04-18 07:22 37.81120 69.73857 5452 ft 190 kts 39°
2026-04-18 07:22 37.82275 69.74582 5232 ft 184 kts 15°
2026-04-18 07:22 37.83502 69.75021 4995 ft 182 kts 15°
2026-04-18 07:22 37.84706 69.75454 4771 ft 178 kts 15°
2026-04-18 07:23 37.85884 69.75878 4532 ft 173 kts 15°
2026-04-18 07:23 37.87014 69.76285 4300 ft 165 kts 15°
2026-04-18 07:23 37.88108 69.76680 4080 ft 162 kts 15°
2026-04-18 07:23 37.89194 69.77047 3874 ft 161 kts 14°
2026-04-18 07:24 37.90265 69.77446 3619 ft 160 kts 15°
2026-04-18 07:24 37.91332 69.77839 3370 ft 160 kts 16°
2026-04-18 07:24 37.92400 69.78232 3108 ft 160 kts 15°
2026-04-18 07:24 37.93468 69.78617 2870 ft 160 kts 14°
2026-04-18 07:25 37.94532 69.79004 2697 ft 159 kts 15°
2026-04-18 07:25 37.95589 69.79392 2520 ft 158 kts 14°
2026-04-18 07:25 37.96645 69.79762 2372 ft 157 kts 15°
2026-04-18 07:25 37.97693 69.80153 2191 ft 155 kts 15°
2026-04-18 07:26 37.98618 69.80483 2221 ft 105 kts 16°
2026-04-18 07:26 37.98951 69.80608 2240 ft 0 kts 38°
2026-04-18 07:26 37.98953 69.80620 2240 ft 6 kts 77°
2026-04-18 07:26 37.98908 69.80672 2239 ft 12 kts 152°
2026-04-18 07:27 37.98830 69.80724 2236 ft 12 kts 152°
2026-04-18 07:27 37.98800 69.80741 2234 ft 1 kts 174°
2026-04-18 07:27 37.98772 69.80729 2233 ft 13 kts 199°
2026-04-18 07:27 37.98730 69.80766 2228 ft 5 kts 104°
2026-04-18 07:28 37.98728 69.80774 2231 ft 0 kts 104°